Bellaire, MI

12:08 AM EDT on April 24, 2017 (GMT -0400)
Antrim County

Weather History for KACB - September, 2013

Change the Weather History Date:

Friday, September 27, 2013

  Actual Average (KCVX) Record (KCVX)
Temperature  
Mean Temperature 59 °F -  
Max Temperature 79 °F 71 °F 77 °F (2008)
Min Temperature 39 °F 53 °F 39 °F (2010)
Degree Days  
Heating Degree Days 6    
Growing Degree Days 9 (Base 50)    
Moisture  
Dew Point 47 °F    
Average Humidity 75    
Maximum Humidity 99    
Minimum Humidity 31    
Precipitation  
Precipitation 0.00 in - - ()
Sea Level Pressure  
Sea Level Pressure 30.17 in    
Wind  
Wind Speed 1 mph (South)    
Max Wind Speed 10 mph    
Max Gust Speed -    
Visibility 8 miles    
Events Fog    
Averages and records for this station are not official NWS values.
T = Trace of Precipitation, MM = Missing Value Source: NWS Daily Summary

Daily Weather History Graph

Daily Weather History Graph

Search for Another Location

Airport or City:

Trip Planner

Search our weather history database for the weather conditions in past years. The results will help you decide how hot, cold, wet, or windy it might be!

Date:

Astronomy

Sep. 27, 2013 Rise Set
Actual Time 7:34 AM EDT 7:28 PM EDT
Civil Twilight 7:04 AM EDT 7:57 PM EDT
Nautical Twilight 6:30 AM EDT 8:31 PM EDT
Astronomical Twilight 5:55 AM EDT 9:06 PM EDT
Moon 12:14 AM EDT (9/27) 3:20 PM EDT (9/27)
Length of Visible Light 12h 52m
Length of Day
11h 54m
Last Quarter, 45% of the Moon is Illuminated
Sep 27
Last Quarter
Oct 4
New
Oct 11
First Quarter
Oct 18
Full
Oct 26
Last Quarter

Hourly Weather History & Observations

Time (EDT) Temp. Dew Point Humidity Pressure Visibility Wind Dir Wind Speed Gust Speed Precip Events Conditions
12:12 AM 46.6 °F 46.0 °F 98% 30.15 in 2.5 mi Calm Calm - N/A   Clear
12:32 AM 45.5 °F 45.0 °F 98% 30.15 in 1.8 mi Calm Calm - N/A   Mist
12:52 AM 44.6 °F 44.1 °F 98% 30.16 in 1.0 mi Calm Calm - N/A   Mist
1:12 AM 45.5 °F 45.0 °F 98% 30.15 in 0.8 mi Calm Calm - N/A   Mist
1:32 AM 45.3 °F 44.8 °F 98% 30.16 in 1.8 mi Calm Calm - N/A   Mist
1:52 AM 45.1 °F 44.6 °F 98% 30.16 in 4.0 mi Calm Calm - N/A   Clear
2:12 AM 43.2 °F 42.6 °F 98% 30.17 in 0.8 mi Calm Calm - N/A   Mist
2:32 AM 43.3 °F 42.6 °F 97% 30.17 in 0.5 mi Calm Calm - N/A Fog Fog
2:52 AM 42.8 °F 42.1 °F 97% 30.17 in 1.2 mi Calm Calm - N/A   Mist
3:12 AM 42.4 °F 41.9 °F 98% 30.18 in - Calm Calm - N/A   Unknown
3:32 AM 42.8 °F 42.1 °F 97% 30.17 in - Calm Calm - N/A   Mostly Cloudy
3:52 AM 42.6 °F 41.9 °F 97% 30.17 in 0.5 mi Calm Calm - N/A   Overcast
4:12 AM 41.2 °F 40.6 °F 98% 30.18 in 0.5 mi Calm Calm - N/A Fog Fog
4:32 AM 41.7 °F 41.2 °F 98% 30.18 in 0.8 mi Calm Calm - N/A   Overcast
4:52 AM 41.0 °F 40.5 °F 98% 30.18 in 4.0 mi Calm Calm - N/A   Scattered Clouds
5:12 AM 40.3 °F 39.7 °F 98% 30.18 in 3.0 mi Calm Calm - N/A   Clear
5:32 AM 41.0 °F 40.5 °F 98% 30.19 in 2.5 mi Calm Calm - N/A   Clear
5:52 AM 41.2 °F 40.6 °F 98% 30.19 in 5.0 mi Calm Calm - N/A   Clear
6:12 AM 40.8 °F 40.3 °F 98% 30.19 in 3.0 mi Calm Calm - N/A   Clear
6:32 AM 39.6 °F 39.0 °F 98% 30.20 in 3.0 mi Calm Calm - N/A   Scattered Clouds
6:52 AM 39.6 °F 39.0 °F 98% 30.20 in 1.0 mi Calm Calm - N/A   Mist
7:13 AM 39.6 °F 39.0 °F 98% 30.20 in 2.5 mi Calm Calm - N/A   Clear
7:32 AM 39.7 °F 39.2 °F 98% 30.20 in 7.0 mi Calm Calm - N/A   Clear
7:52 AM 39.6 °F 39.0 °F 98% 30.20 in 1.8 mi Calm Calm - N/A   Mist
8:12 AM 40.6 °F 40.3 °F 99% 30.21 in 5.0 mi Calm Calm - N/A   Clear
8:32 AM 42.8 °F 42.4 °F 99% 30.21 in 10.0 mi Calm Calm - N/A   Clear
8:53 AM 46.4 °F 46.0 °F 99% 30.21 in 10.0 mi Calm Calm - N/A   Clear
9:12 AM 49.3 °F 48.9 °F 99% 30.21 in 10.0 mi Calm Calm - N/A   Clear
9:32 AM 52.5 °F 52.0 °F 98% 30.21 in 10.0 mi Calm Calm - N/A   Clear
9:53 AM 56.3 °F 55.6 °F 97% 30.21 in 10.0 mi Calm Calm - N/A   Clear
10:12 AM 60.1 °F 52.5 °F 76% 30.22 in 10.0 mi Calm Calm - N/A   Clear
10:32 AM 63.3 °F 51.8 °F 66% 30.22 in 10.0 mi Calm Calm - N/A   Clear
10:53 AM 65.3 °F 50.9 °F 60% 30.22 in 10.0 mi SW 3.5 mph - N/A   Clear
11:12 AM 66.7 °F 51.3 °F 57% 30.22 in 10.0 mi SSW 3.5 mph - N/A   Clear
11:32 AM 68.4 °F 52.2 °F 56% 30.22 in 10.0 mi South 5.8 mph - N/A   Clear
11:53 AM 69.8 °F 52.5 °F 54% 30.22 in 10.0 mi SSW 3.5 mph - N/A   Clear
12:12 PM 71.6 °F 52.9 °F 52% 30.22 in 10.0 mi South 3.5 mph - N/A   Clear
12:32 PM 72.5 °F 52.3 °F 49% 30.21 in 10.0 mi SW 3.5 mph - N/A   Clear
12:53 PM 73.8 °F 52.7 °F 48% 30.21 in 10.0 mi WSW 3.5 mph - N/A   Clear
1:12 PM 74.8 °F 52.2 °F 45% 30.20 in 10.0 mi SSW 4.6 mph - N/A   Clear
1:32 PM 75.4 °F 52.5 °F 45% 30.19 in 10.0 mi SSE 3.5 mph - N/A   Clear
1:53 PM 75.6 °F 51.1 °F 42% 30.19 in 10.0 mi Calm Calm - N/A   Clear
2:12 PM 76.5 °F 50.7 °F 40% 30.18 in 10.0 mi South 3.5 mph - N/A   Clear
2:32 PM 77.0 °F 50.5 °F 39% 30.18 in 10.0 mi Calm Calm - N/A   Clear
2:53 PM 78.4 °F 48.7 °F 35% 30.17 in 10.0 mi SSE 4.6 mph - N/A   Clear
3:12 PM 78.4 °F 48.4 °F 35% 30.16 in 10.0 mi SSE 10.4 mph - N/A   Clear
3:33 PM 79.5 °F 49.5 °F 35% 30.15 in 10.0 mi SSE 4.6 mph - N/A   Clear
3:52 PM 79.9 °F 47.3 °F 32% 30.15 in 10.0 mi SSE 6.9 mph - N/A   Clear
4:12 PM 79.7 °F 46.2 °F 31% 30.15 in 10.0 mi SSE 10.4 mph - N/A   Clear
4:33 PM 79.9 °F 46.4 °F 31% 30.14 in 10.0 mi SSE 9.2 mph - N/A   Clear
4:52 PM 79.9 °F 46.4 °F 31% 30.14 in 10.0 mi South 8.1 mph - N/A   Clear
5:12 PM 79.7 °F 46.2 °F 31% 30.13 in 10.0 mi South 5.8 mph - N/A   Clear
5:33 PM 79.2 °F 46.9 °F 32% 30.13 in 10.0 mi SSW 4.6 mph - N/A   Clear
5:52 PM 78.8 °F 47.8 °F 34% 30.13 in 10.0 mi SE 6.9 mph - N/A   Clear
6:12 PM 77.9 °F 47.3 °F 34% 30.13 in 10.0 mi SE 8.1 mph - N/A   Clear
6:33 PM 75.6 °F 47.5 °F 37% 30.14 in 10.0 mi SE 4.6 mph - N/A   Clear
6:52 PM 69.4 °F 52.9 °F 56% 30.14 in 10.0 mi Calm Calm - N/A   Clear
7:12 PM 65.7 °F 55.4 °F 69% 30.14 in 10.0 mi Calm Calm - N/A   Clear
7:33 PM 62.6 °F 55.2 °F 77% 30.14 in 10.0 mi Calm Calm - N/A   Clear
7:52 PM 60.8 °F 55.0 °F 81% 30.13 in 10.0 mi Calm Calm - N/A   Clear
8:12 PM 58.8 °F 53.8 °F 83% 30.14 in 10.0 mi Calm Calm - N/A   Clear
8:33 PM 57.0 °F 52.7 °F 85% 30.14 in 10.0 mi Calm Calm - N/A   Clear
8:52 PM 56.7 °F 52.5 °F 86% 30.14 in 10.0 mi Calm Calm - N/A   Clear
9:13 PM 55.4 °F 52.0 °F 88% 30.15 in 10.0 mi Calm Calm - N/A   Clear
9:33 PM 55.2 °F 51.8 °F 88% 30.15 in 10.0 mi Calm Calm - N/A   Clear
9:52 PM 53.1 °F 50.7 °F 92% 30.15 in 10.0 mi Calm Calm - N/A   Clear
10:13 PM 53.4 °F 51.1 °F 92% 30.16 in 10.0 mi Calm Calm - N/A   Clear
10:33 PM 51.6 °F 49.5 °F 92% 30.16 in 10.0 mi Calm Calm - N/A   Clear
10:52 PM 51.8 °F 50.0 °F 94% 30.15 in 10.0 mi Calm Calm - N/A   Clear
11:13 PM 50.9 °F 49.1 °F 94% 30.16 in 10.0 mi Calm Calm - N/A   Clear
11:33 PM 51.1 °F 49.5 °F 94% 30.15 in 10.0 mi Calm Calm - N/A   Clear
11:52 PM 53.6 °F 51.4 °F 92% 30.14 in 10.0 mi Calm Calm - N/A   Clear